Location: Eaton Estates
(41.3089°N, 82.0057°W)
Time: 14:31:02
(UTC+00:00)

ADEOS II - Pass Details

Date: 17 June 2021
Orbit: 799 x 800 km, 98.6° (Epoch: 01 August)

Event Time Altitude Azimuth Distance (km) Brightness Sun altitude
Rises 07:49:50 0° 11° (NNE) 3,319 6.6 -17.5°
Reaches altitude 10° 07:52:10 10° 11° (N) 2,384 5.6 -17.3°
Maximum altitude 07:57:26 78° 286° (WNW) 824 2.1 -16.7°
Enters shadow 08:00:28 26° 203° (SSW) 1,530 3.0 -16.4°
